Notices

What's New in latest Release from April 7th, 2021:

- Updated Glossary, including Speed of Maximum Gust, and Total Hourly Precipitation

- Updated national and regional climate services offices contacts and prices information

- Addition of station inventory lists for 1981-2010, 1971-2000, and 1961-1990 Normals.

If you haven't already, please take our survey and provide feedback about our website: https://eccc.sondage-survey.ca/f/LanguageSelection.aspx?s=442ca660-fcf1-47c0-95a9-59707d6fd709

Hourly Data Report for August 18, 2020

TORONTO CITY
ONTARIO
Current Station Operator: ECCC - MSC

43°40'00.000" N
79°24'00.000" W
112.50 m
6158355
71508
XTO

Download Data

Hourly Data (August 2020)
Hourly Data Report for August 18, 2020
TIME
LST
Temp Definition
°C
Dew Point Definition
°C
Rel Hum Definition
%
Precip. Amount Definition
mm

Wind Dir Definition
10's deg

Wind Spd Definition
km/h
Visibility Definition
km
Stn Press Definition
kPa
Hmdx Definition


Wind Chill Definition


Weather Definition


00:00 19.1 13.3 69 0.0       99.83     LegendNANA
01:00 18.0 13.3 74 0.0       99.81     LegendNANA
02:00 18.0 12.8 72 0.0       99.79     LegendNANA
03:00 17.5 12.3 71 0.0       99.76     LegendNANA
04:00 17.1 12.1 73 0.0       99.76     LegendNANA
05:00 16.6 12.1 75 0.0       99.81     LegendNANA
06:00 16.4 11.9 75 0.0       99.82     LegendNANA
07:00 17.3 12.6 74 0.0       99.86     LegendNANA
08:00 18.9 13.0 68 0.0       99.90     LegendNANA
09:00 20.8 12.5 59 0.0       99.94     LegendNANA
10:00 22.4 11.3 50 0.0       99.93     LegendNANA
11:00 24.1 9.7 40 0.0       99.93 25   LegendNANA
12:00 22.9 10.4 45 0.0       99.93     LegendNANA
13:00 21.3 11.7 54 0.0       99.95     LegendNANA
14:00 24.6 9.9 39 0.0       99.89 26   LegendNANA
15:00 25.0 8.3 35 0.0       99.88 26   LegendNANA
16:00 22.4 11.0 48 0.0       99.89     LegendNANA
17:00 22.3 8.6 41 0.0       99.90     LegendNANA
18:00 21.7 6.8 38 0.0       99.94     LegendNANA
19:00 20.3 7.7 44 0.0       100.01     LegendNANA
20:00 19.2 8.7 51 0.0       100.09     LegendNANA
21:00 18.3 9.0 55 0.0       100.14     LegendNANA
22:00 17.6 9.3 58 0.0       100.14     LegendNANA
23:00 16.8 9.4 62 0.0       100.14     LegendNANA

Notes on Data Quality.

Legend

  • E = Estimated
  • M = Missing
  • NA = Not Available*
  • [empty] = Indicates an unobserved value
Date modified: